Location: Bannatyne
(13.0833°N, 59.5333°W)
Time: 20:45:36
(UTC+00:00)

Vanguard 2 Rocket - Pass Details

Date: 20 January 2020
Orbit: 554 x 3326 km, 32.9° (Epoch: 07 April)

Event Time Altitude Azimuth Distance (km) Brightness Sun altitude
Rises 14:29:38 0° 309° (NW) 4,569 10.1 48.7°
Reaches altitude 10° 14:32:22 10° 316° (NW) 3,901 9.8 49.1°
Maximum altitude 14:43:03 48° 28° (NNE) 2,915 9.8 50.6°
Drops below altitude 10° 15:00:13 10° 98° (E) 6,084 11.5 52.7°
Sets 15:05:44 0° 103° (ESE) 7,262 11.8 53.3°
